Theta_e
319 321 319 319 320 318 320 322 323 323 321 324 324 323 322 322 323 322 323 324 325 322 322 323 321 318 321 326 327 326 325 324 325 325 325 323 320 318 317 317 317 317 317 317
320 320 318 315 316 320 321 323 322 320 322 324 322 323 321 321 322 323 323 322 322 324 326 325 324 321 318 319 323 325 325 325 324 323 323 325 323 322 321 320 319 319 319 318
320 317 317 319 318 319 320 322 322 323 322 322 323 324 321 320 321 321 322 322 323 323 325 327 326 324 322 321 319 319 322 325 324 323 324 326 326 326 324 323 322 321 321 321
318 317 318 318 319 320 321 317 318 320 322 323 321 323 319 319 320 320 322 322 322 323 323 325 327 326 325 323 323 318 318 319 323 325 324 325 324 323 321 321 322 322 322 323
316 317 318 319 320 319 321 319 319 320 322 321 321 324 319 319 321 320 320 322 322 323 324 323 324 326 327 326 326 324 324 320 318 322 324 324 325 324 325 324 323 322 322 322
312 316 317 317 317 317 319 320 320 321 322 324 321 321 320 319 319 319 319 320 321 322 323 323 324 322 324 327 328 326 324 324 321 319 321 323 322 323 325 325 324 323 321 321
315 315 316 317 319 318 319 321 323 323 324 323 318 322 323 318 317 316 318 319 321 322 321 322 323 323 324 326 328 327 325 325 325 322 319 320 320 320 323 323 323 323 322 321
319 318 314 315 316 317 320 321 322 324 321 318 315 321 319 316 317 318 319 319 320 319 320 319 319 320 323 325 326 326 326 326 325 325 320 318 318 319 321 323 323 323 323 322
313 313 314 314 315 314 316 321 318 321 307 316 316 314 313 312 313 313 315 318 317 317 318 320 322 321 322 319 319 321 320 322 324 325 325 319 317 317 319 320 323 324 325 325
316 318 314 314 316 316 317 315 321 319 322 321 316 315 318 315 315 314 312 313 313 312 312 316 317 316 318 320 317 318 319 320 323 324 324 323 322 321 319 319 322 323 324 325
314 315 316 315 317 318 319 320 320 318 319 322 315 315 309 314 313 312 309 311 311 311 310 312 311 312 315 318 317 316 318 318 319 320 321 322 322 321 319 318 320 322 324 324
312 311 316 316 312 314 316 317 318 321 318 316 312 318 311 307 308 308 309 313 317 315 309 310 310 312 312 315 318 318 315 318 318 318 319 320 321 320 320 320 320 323 324 324
313 313 315 316 314 313 318 317 317 317 315 315 317 318 308 309 307 309 306 312 314 316 315 312 310 310 311 313 315 315 314 314 316 318 318 319 319 320 320 321 322 324 325 325
313 311 315 315 316 315 317 317 318 318 320 318 317 317 315 314 313 313 315 314 314 314 317 317 315 311 309 310 312 312 312 312 313 314 316 317 318 318 319 320 322 323 324 325
310 308 313 312 310 312 313 316 317 319 319 319 317 317 316 315 313 314 314 314 313 313 316 317 317 315 309 308 309 311 312 312 312 313 314 315 316 317 318 320 321 323 324 325
310 312 310 311 311 312 313 313 314 316 316 317 318 318 316 316 316 314 316 316 315 314 315 316 317 315 310 308 308 309 310 311 312 313 314 315 316 317 318 320 322 322 322 322
310 310 310 310 308 311 310 312 313 313 314 315 317 315 314 314 314 314 315 315 315 315 316 315 316 316 312 308 309 309 309 310 310 312 313 313 313 313 313 313 314 314 314 313
308 309 308 306 302 306 306 307 310 312 312 312 314 314 314 314 315 315 315 314 315 315 315 316 316 316 312 309 309 309 309 309 309 309 309 309 309 309 309 309 309 309 308 308
305 305 307 304 304 300 305 305 309 309 311 310 311 312 313 313 314 314 314 314 314 314 314 314 315 316 315 311 309 309 309 309 309 309 309 309 309 309 309 309 309 309 309 309
303 303 299 303 298 297 300 304 307 307 310 303 306 309 309 310 311 311 311 311 312 313 313 314 314 314 314 314 309 308 308 308 308 309 309 309 309 309 309 309 309 309 309 309
301 304 302 298 292 297 299 300 307 306 304 300 301 301 300 303 305 304 305 305 306 308 311 313 313 313 313 312 309 308 309 308 308 308 309 309 310 309 309 309 309 309 309 309
300 299 295 295 298 300 299 304 308 299 299 299 297 297 296 297 300 301 303 304 305 306 308 310 311 312 313 312 309 309 310 308 308 308 308 308 309 309 308 308 308 309 309 309
298 298 297 300 301 299 303 302 297 296 296 297 298 297 296 298 299 300 302 303 304 305 306 307 308 310 309 308 307 307 308 309 308 308 308 308 308 307 307 307 307 307 307 307
299 299 300 301 300 299 302 299 294 293 293 295 295 296 296 297 299 300 301 302 304 304 304 305 306 306 306 306 306 305 304 304 306 308 307 307 306 305 305 305 305 305 305 305
299 299 298 299 301 300 298 294 292 291 291 292 293 292 293 295 299 298 299 301 302 303 302 301 301 302 302 302 302 303 303 303 303 303 304 304 304 304 304 303 303 302 302 302
296 298 301 300 291 294 294 289 290 289 289 288 290 291 289 291 294 295 297 298 299 301 301 300 298 300 300 300 301 302 302 302 302 302 302 303 303 303 302 302 301 300 300 300
Wind_Speed
9 9 14 15 13 7 5 6 11 3 6 6 11 13 13 25 20 23 31 35 40 38 34 32 30 33 34 36 37 37 36 36 36 39 39 38 40 37 36 35 33 31 30 28
5 17 7 7 10 8 11 14 15 5 4 5 7 18 12 18 24 26 32 33 39 46 46 39 35 33 36 37 39 40 39 39 37 39 40 40 39 39 38 36 36 34 34 32
13 3 15 8 10 14 14 16 9 6 2 4 7 21 15 16 34 32 39 43 39 45 48 51 44 41 37 39 40 41 42 41 39 41 41 41 41 41 42 42 41 39 37 36
10 11 7 16 17 13 19 14 18 15 6 11 5 16 6 6 14 12 27 34 40 48 53 49 53 48 47 42 37 43 41 43 43 43 45 46 46 45 44 42 41 41 40 40
6 10 14 12 10 12 6 5 11 12 12 10 14 8 6 11 16 16 18 36 42 46 47 49 55 58 56 46 43 44 42 44 45 46 46 46 47 47 45 42 41 41 41 42
9 3 5 7 11 12 3 5 9 8 7 10 25 14 21 14 16 13 16 32 36 39 40 42 45 50 55 51 48 47 47 46 45 46 47 48 47 47 48 47 46 43 40 37
9 8 1 7 3 7 13 7 4 5 5 9 3 10 22 8 10 9 14 27 32 28 30 35 39 39 44 50 51 48 48 47 46 46 49 48 47 46 46 48 47 43 40 39
7 7 20 7 11 5 7 8 4 4 4 3 2 10 7 8 20 27 25 33 38 34 32 28 32 30 36 41 43 47 51 53 51 47 46 47 46 48 47 49 45 41 41 37
7 6 3 6 6 12 6 11 11 5 3 2 5 8 7 9 13 12 24 31 34 31 30 29 34 36 33 33 37 42 42 45 48 49 47 47 47 47 47 46 42 42 39 37
3 4 5 7 7 9 5 6 5 6 8 6 6 6 8 7 13 10 10 12 22 23 24 24 28 32 31 34 30 32 35 37 45 48 49 48 46 45 44 46 44 41 38 37
6 3 2 11 13 17 7 4 4 3 3 5 3 6 8 13 9 8 8 15 20 26 28 22 22 28 29 30 26 25 31 33 38 45 46 47 47 45 43 44 44 42 38 34
11 2 3 10 1 7 13 9 9 3 4 4 2 12 2 7 8 6 11 15 15 26 25 22 22 21 17 23 32 26 26 31 33 36 40 42 42 42 41 41 42 42 39 35
11 5 3 2 4 3 7 14 15 13 2 9 3 11 4 1 5 15 13 13 19 26 28 28 25 21 16 13 23 27 25 25 29 30 33 36 38 39 39 38 37 37 36 34
20 4 4 5 2 3 8 12 17 13 5 16 16 29 20 17 14 15 28 29 25 24 24 37 31 27 21 18 20 23 23 22 23 25 30 33 34 33 33 32 32 33 33 32
5 6 7 6 4 4 1 10 14 14 20 10 29 19 24 18 9 18 25 29 26 28 25 28 39 29 24 22 21 20 24 23 23 24 26 27 26 26 28 28 29 29 30 31
3 3 3 4 4 9 6 11 11 22 21 19 25 29 33 32 31 25 32 37 33 32 36 34 34 33 28 24 20 19 19 20 21 22 23 23 23 23 24 25 26 27 28 30
7 6 3 2 3 2 6 19 22 17 19 20 19 34 33 12 14 23 28 31 36 36 40 35 31 31 28 19 16 14 16 17 17 18 19 20 21 22 21 22 23 25 26 27
6 6 3 2 2 2 5 2 10 18 21 21 23 29 26 20 29 39 38 29 41 48 45 40 33 26 26 14 13 11 14 16 17 17 17 16 16 16 17 18 18 20 22 23
3 4 3 4 4 6 9 5 7 8 13 17 22 26 35 28 22 40 36 36 40 40 42 43 37 29 27 19 14 12 11 12 14 15 14 14 14 14 13 13 15 17 19 20
2 3 4 3 5 8 5 6 4 5 6 6 11 17 12 14 6 14 28 32 32 32 31 32 28 32 28 19 21 16 14 14 13 14 15 14 13 12 12 14 17 18 19 20
3 1 7 4 4 8 7 8 3 3 3 6 14 14 16 5 8 31 38 35 32 34 32 25 24 25 26 22 23 23 19 19 18 18 18 16 15 16 18 19 20 20 20 20
8 7 4 3 2 10 8 2 7 2 7 14 15 13 21 25 31 30 36 36 34 28 23 23 24 25 27 27 28 26 23 23 24 23 22 21 20 20 21 21 19 19 19 19
3 7 6 10 7 5 4 2 3 5 8 12 21 25 23 28 32 34 36 35 34 28 22 18 18 19 21 23 25 27 27 27 27 27 26 24 22 21 20 19 19 20 20 20
5 6 3 3 5 9 9 5 1 5 10 13 16 21 23 26 29 31 31 30 31 29 21 17 15 16 18 19 21 23 25 24 26 28 27 24 21 19 18 18 18 20 20 19
4 8 6 5 3 6 7 6 6 12 14 14 16 19 22 24 26 28 29 25 26 27 22 16 14 13 14 15 16 18 19 21 20 21 21 20 20 18 18 19 19 18 17 14
6 6 5 5 2 1 3 3 14 16 17 19 22 25 22 22 24 25 25 22 20 23 22 19 15 13 14 14 15 16 17 17 17 17 18 17 18 19 19 19 17 13 9 10
Wind_Direction
202 200 217 214 219 246 281 238 238 219 221 214 240 251 244 267 270 261 265 266 259 251 246 254 260 257 253 248 244 242 238 235 232 232 233 234 237 237 237 236 237 237 236 236
187 231 213 201 216 232 228 249 262 263 210 202 279 268 246 261 260 254 263 262 262 263 252 251 250 254 251 251 248 245 242 237 235 235 236 237 239 241 242 242 241 238 237 238
209 158 201 213 207 219 236 240 250 262 321 250 293 282 266 250 254 254 249 253 254 255 257 248 247 245 248 248 246 246 245 242 239 238 237 236 240 242 242 241 241 239 239 240
236 231 209 212 222 199 234 222 242 258 272 264 137 284 250 271 270 236 242 250 249 251 256 250 246 242 241 242 247 247 247 246 244 239 239 237 238 239 243 243 243 243 242 243
208 169 197 213 214 198 236 161 222 229 239 263 244 266 295 217 250 260 240 253 253 255 256 253 248 244 237 239 245 249 249 248 246 243 241 242 240 244 247 249 249 248 246 244
215 207 197 222 201 215 108 235 273 264 261 227 243 219 268 241 246 256 255 254 263 267 263 261 256 250 248 239 244 247 248 247 246 246 242 241 243 244 245 247 248 248 249 247
210 208 181 177 168 194 191 197 241 232 203 250 210 207 245 297 283 235 250 265 272 270 270 266 255 250 246 240 241 247 247 245 245 245 242 241 244 246 246 248 248 249 250 250
197 196 216 181 202 166 202 207 219 208 213 285 37 227 260 239 250 260 270 274 273 273 281 274 263 256 253 250 247 246 246 245 242 242 244 243 243 243 244 246 248 248 249 251
183 241 73 199 161 166 181 220 221 271 161 245 216 284 270 246 270 284 264 266 271 286 288 274 272 269 260 247 248 244 246 241 238 240 242 240 242 242 244 247 248 248 249 250
190 279 182 184 138 207 184 134 165 202 247 242 250 254 237 298 278 280 298 303 317 318 310 295 290 280 266 253 256 249 243 240 238 240 240 240 242 245 245 244 245 247 249 249
179 246 200 142 199 190 171 191 192 184 188 224 288 252 207 224 247 246 286 344 338 336 334 326 292 286 260 246 249 250 242 241 239 237 238 240 240 241 242 243 244 245 249 249
173 149 216 202 12 200 211 188 205 232 202 226 208 264 354 241 233 267 295 305 342 345 343 342 330 305 276 259 241 250 246 242 241 240 237 237 240 241 242 243 242 244 246 249
163 214 210 153 304 331 210 212 214 222 301 233 245 266 345 229 308 295 290 295 322 339 341 346 338 323 306 274 253 253 248 244 240 239 236 235 237 240 242 243 243 243 246 248
164 147 211 200 163 136 213 207 220 216 226 252 244 263 259 270 295 301 295 291 303 317 323 326 330 329 314 295 268 252 249 245 238 235 235 234 234 238 242 244 242 241 242 244
166 175 192 201 168 102 333 224 219 221 237 232 257 259 268 276 272 282 288 293 299 301 310 317 319 323 318 301 276 260 249 243 240 236 231 230 231 233 234 236 237 237 239 242
165 176 156 208 255 212 224 234 251 231 239 250 261 274 262 272 281 282 283 284 285 287 296 302 303 311 318 307 290 265 249 240 234 226 223 223 227 228 229 232 235 239 241 244
159 164 138 228 194 152 278 237 232 242 242 243 248 254 271 284 283 269 269 274 284 285 289 294 296 308 315 311 291 267 242 235 229 223 220 220 223 227 229 232 235 240 244 246
134 141 142 168 65 247 243 52 217 216 233 228 245 259 269 267 273 285 278 285 284 285 286 287 295 300 310 301 286 258 239 235 227 217 216 215 217 222 226 231 236 240 243 245
136 126 137 158 196 302 294 195 166 176 246 233 244 254 260 278 281 279 286 281 280 287 287 282 283 286 282 292 277 265 247 232 225 209 203 205 209 217 223 231 235 238 239 239
55 92 123 162 175 223 238 295 181 112 275 4 309 261 287 298 274 276 310 323 311 310 308 301 291 277 278 279 257 262 256 241 231 223 209 207 211 220 233 236 239 239 238 236
137 187 198 192 231 283 249 254 228 146 245 30 20 10 352 329 315 308 314 323 320 305 303 301 296 283 272 262 253 251 249 247 242 237 230 221 227 235 242 245 248 248 247 245
167 161 186 150 192 266 230 20 202 68 341 335 342 341 330 318 321 326 327 335 330 328 309 296 288 278 269 258 247 244 250 244 241 241 239 238 239 245 248 252 252 250 246 243
212 183 181 187 210 213 159 175 187 349 332 331 327 326 330 327 327 326 328 333 333 331 324 307 287 272 262 254 245 240 233 240 240 241 240 240 243 246 248 251 251 246 244 245
237 182 202 118 211 224 218 218 211 345 341 333 327 323 325 320 321 323 328 334 332 328 326 316 300 282 260 251 249 244 240 237 230 238 239 237 240 244 247 249 245 243 243 244
196 146 177 266 284 264 248 233 296 321 323 318 321 328 326 326 319 320 320 327 330 323 318 310 296 280 269 257 250 245 243 240 243 238 232 231 234 236 237 235 234 237 239 239
192 184 187 222 100 199 137 259 311 317 321 317 319 318 325 328 322 320 316 317 322 319 313 307 296 279 267 261 257 253 251 247 243 241 234 228 226 223 217 215 208 206 201 184